Temperature
22 20 19 20 21 21 21 21 20 20 21 20 19 19 19 19 19 18 18 18 18 18 18 18 18 18 18 17 17 17 17 16 16 16 16 16 16 16 15 15 15 15 15 15
19 20 21 22 22 22 21 20 20 21 21 20 19 19 19 19 19 19 19 18 18 18 18 18 18 18 18 17 17 17 17 16 16 16 16 16 16 15 15 15 15 15 15 15
20 21 23 22 22 22 21 21 20 21 20 20 19 18 18 18 19 19 19 19 18 18 18 18 18 17 17 17 17 17 17 16 16 16 16 16 15 15 15 15 15 15 15 15
21 22 22 22 22 22 21 22 21 21 19 18 19 17 17 18 18 18 18 18 18 18 18 18 18 17 17 17 17 17 16 16 16 16 16 15 15 15 15 15 15 15 14 14
21 22 22 22 22 22 21 22 21 21 19 18 18 17 17 17 17 17 17 17 18 18 18 18 18 17 17 17 17 17 16 16 16 16 15 15 15 15 15 14 14 15 14 14
21 22 22 22 22 22 22 20 19 17 17 17 18 17 16 16 17 17 17 17 17 18 18 18 17 17 17 17 17 16 16 16 16 16 15 15 15 15 15 14 14 14 14 14
20 21 22 22 22 21 20 17 17 17 16 17 18 17 16 17 18 18 17 17 18 18 17 17 17 17 17 17 16 16 16 16 16 16 15 15 15 15 14 14 14 14 14 14
18 19 21 22 21 20 20 18 17 17 17 16 17 17 17 18 19 19 19 18 18 17 17 17 17 17 17 16 16 16 16 16 16 15 15 15 15 15 14 14 14 14 14 14
18 19 21 22 22 21 20 18 18 16 17 16 16 17 18 18 18 18 18 18 17 17 17 17 17 17 16 16 16 16 16 16 15 15 15 15 15 15 14 14 14 14 14 14
19 19 20 21 21 21 20 18 16 16 17 16 17 17 16 17 17 17 16 17 17 17 17 17 17 17 16 16 16 16 16 16 15 15 15 15 15 14 14 14 14 14 14 13
18 18 18 19 19 19 19 19 17 15 15 15 16 16 17 17 17 16 16 17 18 17 17 17 17 17 16 16 16 15 15 15 15 15 15 15 14 14 14 14 14 13 13 13
17 15 16 18 19 20 19 19 17 16 16 15 14 15 18 17 17 17 17 17 18 17 17 17 16 16 16 16 15 15 15 15 15 15 15 14 14 14 14 14 14 13 13 13
17 15 16 16 17 18 19 19 18 15 14 14 14 16 17 16 17 17 17 17 17 17 17 17 16 16 16 15 15 15 15 14 14 14 14 14 14 14 14 14 13 13 13 13
17 15 15 16 16 17 17 18 18 16 15 14 15 16 17 16 16 16 17 17 17 17 17 16 16 16 15 15 15 14 14 14 14 14 14 14 13 14 13 13 13 13 13 13
15 15 16 16 17 17 17 18 18 17 16 15 15 16 16 16 16 16 17 17 16 16 16 16 16 15 15 15 14 14 14 14 14 13 13 13 13 13 13 13 13 13 13 13
14 15 15 16 17 17 17 17 17 17 17 16 16 16 16 17 16 16 16 16 15 15 16 15 15 15 15 15 14 14 14 13 13 13 13 13 13 13 13 12 12 12 12 12
13 14 14 14 15 16 16 16 17 17 16 16 16 16 16 15 15 15 16 16 15 15 15 15 15 15 15 14 14 14 13 13 13 13 13 12 12 12 12 12 12 12 12 12
13 13 12 12 14 15 15 16 17 16 16 16 16 16 16 16 16 16 16 16 15 15 15 15 15 14 14 14 14 13 13 13 12 12 12 12 12 12 12 12 11 11 11 11
13 13 12 12 13 14 15 16 16 16 15 15 15 15 15 16 15 15 16 16 16 15 15 15 15 14 14 14 13 13 13 12 12 12 12 11 11 11 11 11 11 11 11 11
12 12 12 12 13 13 15 16 17 16 14 15 15 14 15 14 12 13 15 15 15 15 15 14 14 14 13 13 13 13 12 12 12 11 11 11 11 11 11 11 11 10 10 10
13 12 12 11 12 13 14 15 16 14 14 15 15 15 15 14 14 15 15 15 15 14 14 14 13 13 13 13 12 12 12 11 11 11 11 11 10 10 10 10 10 10 10 9
12 12 11 11 11 13 14 14 14 14 15 15 15 15 15 15 15 15 15 14 14 14 13 13 13 13 12 12 12 12 11 11 11 11 10 10 10 10 10 10 10 9 9 9
11 12 11 11 12 13 15 15 16 16 15 15 15 15 15 14 14 14 14 14 13 13 13 13 12 12 12 12 11 11 11 11 10 10 10 10 10 10 9 9 9 9 9 9
11 12 11 11 12 13 14 15 15 15 15 15 15 15 14 14 14 13 13 13 13 12 12 12 12 12 11 11 11 11 10 10 10 10 10 9 9 9 9 9 9 9 8 8
11 11 11 11 11 13 14 14 14 14 14 14 14 14 14 13 13 13 12 12 12 12 12 11 11 11 11 10 10 10 10 10 9 9 9 9 9 9 9 9 8 8 8 8
10 11 11 11 12 11 13 14 14 14 14 14 14 13 13 13 12 12 12 11 11 11 11 11 10 10 10 10 10 9 9 9 9 9 9 8 8 8 8 8 8 8 8 8
Wind_Speed
1 3 2 6 7 5 3 2 2 4 3 4 4 4 5 5 7 8 7 7 7 6 5 5 5 6 6 5 5 5 5 4 4 3 3 3 2 1 2 3 4 5 5 6
4 3 8 5 3 2 2 1 1 1 2 3 3 3 4 6 9 10 11 9 8 6 5 5 5 5 6 6 5 5 5 4 4 3 2 2 2 1 1 2 3 4 5 4
6 6 4 2 2 2 1 3 3 2 1 2 2 3 2 2 4 5 7 8 8 10 9 7 6 5 6 5 5 5 5 4 3 4 3 3 3 3 3 2 2 1 3 3
3 5 1 1 2 3 3 4 4 4 3 2 3 2 6 4 3 5 7 7 8 8 8 7 7 7 6 6 5 5 4 4 4 5 5 5 3 2 1 0 0 1 2 2
3 2 1 2 4 3 5 3 2 3 3 1 1 3 5 2 4 6 7 7 8 8 9 8 8 8 7 6 5 5 5 4 4 5 5 5 3 2 1 1 1 1 1 1
4 4 3 4 3 2 1 3 5 5 4 1 5 5 5 4 8 7 7 8 9 9 8 8 7 6 5 4 5 5 5 4 4 5 5 5 5 3 3 1 1 0 0 1
5 4 3 0 1 2 5 5 3 4 3 5 3 3 5 6 7 9 10 10 9 9 8 8 7 6 6 5 5 5 6 4 4 5 5 5 5 5 4 3 3 2 0 0
0 5 4 2 3 3 2 7 6 4 4 4 2 3 5 4 4 7 8 8 8 9 8 9 9 8 7 7 6 5 6 5 5 5 5 5 5 4 3 4 3 3 2 2
2 5 5 3 2 4 2 3 6 6 2 1 3 2 3 2 3 5 7 7 8 8 8 9 8 7 7 6 6 6 7 6 5 6 5 5 5 4 4 4 3 3 2 2
4 3 5 4 2 0 4 4 5 3 2 2 3 3 4 4 4 5 6 7 7 7 6 6 6 6 6 5 4 4 5 6 5 5 5 5 5 4 4 4 4 3 3 2
3 3 5 3 2 3 1 1 4 4 4 4 3 5 5 8 7 7 7 8 8 8 7 6 6 5 5 4 4 3 3 3 3 4 4 4 4 4 4 4 4 3 3 3
1 4 2 5 5 3 5 5 5 4 3 4 4 6 5 6 7 7 7 7 7 7 7 6 6 5 4 4 3 3 3 3 3 4 4 4 4 3 4 4 4 4 4 3
2 4 1 5 6 4 1 1 3 5 4 4 4 5 3 2 3 4 5 6 6 6 5 5 5 5 5 4 3 3 3 3 2 3 3 3 3 3 3 4 4 4 4 3
2 3 5 7 6 3 4 4 3 4 4 5 7 6 5 3 4 3 4 5 5 6 6 6 5 5 4 4 4 3 3 3 2 2 3 3 3 3 3 3 2 3 3 3
4 1 4 6 6 4 4 5 5 6 7 8 8 8 8 7 7 6 5 5 5 5 6 6 6 5 4 4 3 3 3 3 3 3 3 3 3 2 2 2 2 2 2 2
3 1 2 4 4 3 4 6 5 6 6 7 6 7 7 5 4 3 4 6 5 5 6 6 6 5 5 5 4 3 3 3 3 3 2 2 2 2 2 2 1 2 2 2
1 2 1 3 5 4 5 5 4 3 4 6 8 8 4 3 5 6 6 6 6 6 5 6 7 7 6 6 6 5 4 3 3 3 3 2 3 3 2 2 2 1 2 2
5 3 2 1 3 4 6 3 3 3 2 2 3 3 4 5 5 5 5 6 6 5 5 5 5 5 5 5 5 4 4 4 4 3 3 3 3 3 2 2 2 1 1 1
6 6 3 2 2 6 6 3 1 2 3 3 2 3 3 3 3 1 1 4 5 6 5 5 5 4 4 4 5 5 4 4 4 4 3 3 4 3 3 3 2 1 1 1
4 5 5 3 3 5 6 5 1 3 2 4 1 2 2 3 2 4 3 2 2 2 3 3 3 3 3 3 4 5 4 4 4 4 4 3 3 4 3 3 3 1 1 2
1 1 4 5 5 7 6 4 2 3 6 3 1 2 3 4 6 5 2 2 2 2 3 4 4 4 3 3 4 5 4 4 4 4 3 3 3 4 4 3 2 2 2 1
5 4 4 4 4 7 5 2 4 6 3 2 1 2 3 3 2 2 2 2 2 2 2 3 3 2 2 3 5 5 3 3 3 3 3 3 3 3 2 3 2 2 2 2
4 6 5 6 7 5 3 5 4 4 4 3 3 2 2 2 2 2 2 2 2 2 2 2 3 2 1 2 4 5 3 3 3 3 3 3 2 2 2 3 3 2 2 3
4 1 2 2 4 4 3 2 2 3 3 3 3 2 3 3 3 2 2 2 1 1 2 2 3 3 2 2 3 4 4 4 3 2 2 2 2 2 2 2 2 3 3 4
5 1 1 4 5 3 3 3 3 2 2 2 1 1 3 4 3 2 2 2 1 1 1 2 3 3 3 2 2 3 4 4 3 2 2 1 2 2 2 2 3 3 4 5
5 6 5 7 7 5 6 6 4 3 3 3 2 1 2 3 4 2 3 2 2 2 2 2 2 2 2 2 2 2 3 4 4 2 1 1 2 2 2 2 1 1 2 3
Wind_Direction
16 81 219 226 207 204 203 181 200 216 183 141 171 200 217 184 162 168 172 173 173 177 170 151 148 143 134 126 123 122 110 106 107 104 105 98 87 70 60 74 89 95 104 110
39 253 243 239 238 226 202 156 173 207 175 147 176 226 225 186 181 181 178 180 179 166 149 147 142 137 135 139 140 132 126 124 124 124 136 132 128 104 84 62 74 87 100 115
194 242 256 218 219 177 207 182 196 188 110 80 106 317 277 233 182 174 174 176 172 165 167 162 150 142 139 143 150 148 143 135 128 117 98 84 66 52 43 38 37 47 95 105
240 268 276 252 238 181 228 226 190 163 128 240 160 238 267 225 189 180 179 173 173 168 166 163 156 153 156 161 152 143 144 140 134 125 122 120 114 117 196 206 45 20 75 95
252 256 241 242 240 194 216 225 191 191 169 222 232 176 270 204 197 203 190 181 175 172 170 166 162 164 163 159 151 148 142 143 142 136 140 136 128 145 129 91 71 39 24 71
240 251 211 219 243 199 147 45 34 45 87 260 232 176 257 218 207 198 191 184 179 176 174 169 164 154 155 151 149 148 146 156 158 150 152 150 153 150 129 129 137 24 353 360
322 309 292 179 41 360 77 82 37 5 6 254 251 170 243 238 204 187 183 186 181 177 174 170 167 165 165 162 161 162 161 171 176 167 169 172 171 168 168 177 185 180 193 265
342 295 283 263 187 199 173 141 155 194 227 273 321 210 252 255 188 173 172 172 168 171 177 178 180 178 175 174 172 171 173 182 187 185 188 185 179 178 184 187 183 188 197 211
178 261 282 260 198 151 153 184 176 155 208 254 283 286 316 23 114 143 154 158 166 175 179 182 182 179 179 178 180 181 178 184 191 192 192 189 187 182 187 189 186 193 204 206
160 251 292 300 22 328 165 153 91 120 173 248 280 242 225 216 196 171 163 165 167 168 174 176 177 178 182 185 189 184 181 187 194 195 195 194 197 191 187 174 179 189 204 200
151 178 297 333 206 221 168 144 123 135 161 165 234 265 226 198 190 178 179 177 171 172 177 176 173 172 167 166 173 174 180 184 189 196 200 192 196 193 181 176 186 187 191 193
106 134 251 266 272 220 176 184 157 166 221 172 180 263 276 199 186 170 174 181 179 176 177 171 165 163 162 171 175 173 175 182 196 191 185 191 192 189 186 186 188 182 186 198
94 107 33 335 333 353 28 227 172 153 146 174 186 255 300 162 174 179 173 177 177 169 162 158 159 167 172 177 184 188 185 189 190 177 174 180 183 184 194 203 199 186 185 188
102 128 178 211 227 244 270 278 231 151 176 211 215 227 261 226 202 204 181 167 166 173 169 167 175 182 180 177 184 189 195 188 174 163 165 178 195 196 198 199 194 180 173 171
88 171 229 239 239 229 248 259 245 214 200 202 220 217 230 219 201 197 184 167 155 170 174 176 183 188 181 173 183 186 190 180 167 155 162 185 193 183 173 167 168 162 160 167
69 153 331 301 280 282 276 267 252 231 219 211 211 234 229 208 169 167 171 161 169 188 190 188 186 186 188 184 185 182 187 186 156 153 172 176 162 155 154 159 151 150 152 157
112 128 73 282 304 335 283 257 229 216 214 200 220 229 199 153 168 182 185 176 186 191 189 188 191 192 193 191 185 186 188 172 153 159 165 164 162 158 168 163 129 160 179 163
161 141 150 258 345 252 248 259 200 185 260 252 207 196 183 174 175 179 176 174 186 190 190 195 192 190 192 191 183 176 164 157 162 168 176 178 164 168 172 163 174 210 199 179
169 157 154 164 248 277 291 287 222 173 297 301 165 159 157 143 89 19 195 167 182 189 187 190 190 184 179 181 177 160 160 162 164 174 183 189 175 166 169 179 204 212 176 191
93 120 143 164 207 242 255 270 268 104 284 292 171 177 179 128 141 250 240 181 167 164 166 164 155 142 152 174 163 155 168 172 188 195 191 186 179 176 186 198 202 193 176 197
61 86 168 192 223 256 263 277 66 164 238 260 219 183 168 185 207 216 192 166 165 156 156 150 146 155 174 170 150 152 170 194 204 189 175 173 184 196 203 201 199 187 182 191
188 184 196 173 199 251 262 151 177 213 223 211 182 165 161 192 200 162 137 135 131 129 139 146 151 167 172 159 149 154 186 206 181 169 173 192 205 214 207 192 204 195 181 193
199 196 194 195 215 244 236 203 208 176 180 196 181 193 152 144 153 141 144 149 145 149 155 150 153 159 168 168 159 166 193 174 157 165 184 201 211 218 205 194 200 198 198 209
272 183 166 258 272 282 278 239 210 184 187 203 182 166 143 155 162 150 151 151 145 151 158 147 145 161 200 205 173 179 183 166 153 172 202 198 195 221 219 202 201 201 210 213
236 220 226 259 276 305 292 257 231 205 177 162 158 171 169 160 166 174 173 181 177 181 189 167 172 187 210 207 197 184 174 156 153 170 199 224 219 218 221 222 218 220 224 212
214 202 206 238 241 229 255 254 226 193 195 189 181 191 179 171 179 188 195 199 187 187 192 183 187 190 205 202 183 171 160 153 152 163 188 213 225 225 212 216 261 271 240 241
Height
1503 1509 1512 1509 1507 1507 1509 1513 1516 1513 1508 1511 1515 1516 1514 1513 1515 1516 1517 1519 1520 1521 1523 1524 1525 1526 1526 1527 1528 1528 1529 1529 1529 1530 1530 1530 1530 1531 1531 1532 1532 1532 1532 1532
1509 1510 1503 1501 1502 1504 1507 1513 1514 1511 1507 1511 1516 1516 1512 1511 1512 1513 1514 1516 1518 1520 1522 1523 1524 1525 1525 1526 1527 1528 1528 1529 1529 1529 1530 1530 1531 1531 1531 1532 1532 1532 1532 1532
1509 1504 1498 1500 1503 1506 1508 1511 1512 1512 1510 1511 1516 1520 1515 1512 1511 1512 1513 1514 1516 1518 1520 1521 1523 1524 1524 1525 1526 1527 1528 1528 1529 1529 1530 1530 1530 1531 1531 1531 1532 1532 1532 1531
1504 1499 1498 1501 1502 1503 1510 1503 1504 1508 1516 1523 1519 1534 1520 1513 1512 1512 1512 1513 1514 1516 1518 1520 1521 1522 1523 1524 1525 1526 1527 1527 1528 1529 1529 1529 1529 1530 1530 1530 1531 1531 1531 1531
1504 1499 1500 1502 1500 1499 1503 1499 1502 1506 1513 1522 1521 1529 1525 1514 1515 1513 1511 1512 1513 1515 1516 1518 1519 1520 1522 1523 1524 1525 1526 1526 1527 1527 1528 1528 1529 1529 1530 1530 1530 1530 1530 1530
1499 1496 1496 1497 1495 1495 1497 1502 1506 1513 1519 1531 1521 1527 1527 1517 1511 1509 1509 1510 1511 1513 1515 1516 1518 1519 1521 1522 1523 1524 1524 1525 1526 1526 1527 1527 1528 1528 1529 1529 1529 1529 1529 1529
1505 1498 1494 1494 1497 1498 1501 1516 1531 1533 1538 1533 1517 1522 1522 1506 1502 1503 1505 1507 1509 1511 1513 1514 1516 1517 1518 1520 1521 1522 1523 1523 1524 1525 1525 1526 1527 1527 1527 1528 1528 1528 1528 1528
1515 1513 1498 1494 1497 1501 1503 1512 1531 1539 1540 1533 1520 1522 1514 1501 1499 1500 1502 1504 1507 1510 1511 1512 1514 1515 1516 1518 1519 1520 1521 1522 1523 1523 1524 1524 1525 1526 1526 1527 1527 1527 1527 1527
1514 1512 1496 1493 1492 1496 1503 1509 1510 1524 1526 1532 1527 1517 1507 1500 1500 1500 1502 1504 1506 1508 1510 1511 1512 1514 1515 1516 1517 1518 1519 1520 1520 1521 1522 1523 1523 1524 1524 1525 1525 1526 1526 1526
1504 1510 1500 1494 1492 1494 1497 1503 1516 1523 1532 1537 1529 1522 1518 1507 1504 1502 1503 1503 1505 1506 1508 1510 1511 1512 1513 1515 1515 1516 1517 1517 1518 1519 1520 1520 1521 1522 1522 1523 1523 1524 1524 1524
1499 1509 1507 1500 1501 1501 1500 1504 1510 1521 1525 1534 1536 1527 1503 1502 1500 1500 1501 1502 1503 1505 1506 1508 1509 1510 1512 1513 1513 1514 1515 1515 1516 1516 1517 1518 1519 1520 1520 1521 1521 1522 1522 1522
1500 1509 1514 1505 1496 1493 1496 1500 1508 1520 1523 1526 1532 1526 1497 1497 1497 1498 1499 1501 1502 1503 1504 1506 1507 1509 1509 1510 1511 1512 1512 1513 1513 1514 1515 1515 1516 1517 1518 1518 1519 1519 1520 1520
1500 1510 1520 1515 1509 1500 1498 1498 1501 1509 1518 1525 1529 1521 1497 1497 1497 1497 1498 1499 1501 1502 1503 1504 1505 1506 1507 1508 1509 1509 1510 1510 1511 1512 1512 1513 1514 1514 1515 1516 1516 1517 1517 1518
1497 1508 1515 1518 1512 1505 1503 1499 1498 1506 1517 1520 1517 1511 1501 1498 1497 1496 1497 1498 1499 1500 1501 1502 1503 1504 1505 1506 1507 1507 1508 1508 1509 1509 1510 1510 1511 1512 1512 1513 1513 1514 1514 1515
1498 1507 1505 1504 1500 1499 1499 1498 1496 1500 1503 1510 1506 1503 1498 1494 1494 1494 1494 1496 1497 1498 1499 1499 1500 1501 1502 1503 1504 1505 1505 1506 1506 1507 1507 1507 1508 1509 1510 1510 1510 1511 1511 1512
1500 1505 1505 1504 1498 1497 1497 1494 1493 1494 1495 1497 1497 1498 1490 1490 1491 1492 1493 1493 1495 1496 1496 1497 1498 1499 1499 1500 1501 1502 1502 1503 1503 1504 1504 1505 1506 1506 1507 1507 1507 1508 1508 1509
1503 1506 1510 1513 1504 1500 1502 1493 1491 1491 1489 1491 1494 1491 1487 1489 1489 1490 1491 1491 1492 1493 1493 1494 1495 1496 1496 1497 1498 1498 1499 1500 1501 1501 1502 1502 1503 1503 1504 1504 1505 1505 1505 1506
1501 1506 1512 1514 1510 1511 1498 1486 1485 1487 1487 1486 1485 1484 1484 1485 1487 1487 1488 1489 1489 1490 1491 1492 1492 1493 1494 1495 1496 1496 1497 1497 1498 1498 1499 1500 1500 1500 1501 1501 1502 1502 1502 1503
1493 1501 1510 1515 1515 1508 1494 1486 1485 1487 1489 1485 1484 1484 1484 1484 1485 1487 1487 1487 1487 1488 1489 1489 1490 1491 1491 1492 1493 1493 1494 1494 1495 1495 1496 1496 1497 1497 1498 1498 1499 1499 1499 1499
1493 1497 1507 1513 1513 1510 1494 1483 1481 1485 1492 1485 1483 1483 1483 1484 1489 1487 1485 1485 1485 1486 1487 1487 1488 1488 1489 1489 1490 1490 1491 1491 1491 1492 1492 1493 1494 1494 1495 1495 1495 1496 1496 1496
1499 1502 1506 1510 1511 1501 1487 1482 1483 1495 1492 1483 1482 1481 1482 1482 1483 1483 1483 1483 1483 1484 1485 1485 1485 1486 1486 1486 1487 1487 1488 1488 1488 1489 1490 1490 1491 1491 1492 1492 1492 1492 1493 1493
1498 1502 1504 1507 1509 1502 1483 1482 1485 1485 1481 1481 1480 1480 1480 1480 1480 1480 1480 1480 1481 1481 1482 1482 1483 1483 1483 1484 1484 1484 1485 1485 1486 1486 1487 1487 1487 1488 1488 1489 1489 1489 1489 1489
1493 1493 1494 1495 1493 1483 1480 1479 1478 1479 1479 1479 1479 1479 1479 1479 1478 1478 1478 1479 1479 1479 1480 1480 1480 1480 1481 1481 1481 1481 1482 1483 1483 1483 1483 1483 1484 1484 1485 1485 1485 1485 1485 1485
1488 1486 1488 1488 1484 1481 1479 1478 1477 1477 1477 1477 1477 1477 1477 1477 1476 1476 1476 1477 1477 1477 1477 1477 1477 1477 1477 1478 1478 1478 1479 1480 1480 1480 1480 1480 1481 1481 1481 1481 1481 1481 1481 1482
1485 1484 1486 1486 1481 1479 1477 1476 1476 1475 1475 1475 1475 1475 1474 1474 1474 1474 1474 1474 1474 1475 1474 1474 1474 1474 1474 1474 1474 1475 1476 1476 1477 1477 1477 1477 1478 1478 1478 1478 1478 1478 1478 1478
1479 1481 1483 1481 1477 1477 1475 1474 1473 1473 1472 1472 1472 1472 1472 1472 1472 1472 1472 1472 1472 1472 1472 1471 1471 1471 1471 1471 1471 1472 1473 1473 1474 1474 1474 1474 1474 1474 1474 1474 1474 1475 1475 1475